Location: Ústí nad Labem
(50.6611°N, 14.0531°E)
Time: 10:52:07
(UTC+02:00)

Envisat - Pass Details

Date: 04 March 2024
Orbit: 762 x 764 km, 98.3° (Epoch: 21 April)

Event Time Altitude Azimuth Distance (km) Brightness Sun altitude
Rises 02:46:38 0° 21° (NNE) 3,244 7.0 -35.6°
Reaches altitude 10° 02:49:11 10° 32° (NNE) 2,312 6.2 -35.3°
Enters shadow 02:53:01 30° 79° (ENE) 1,341 4.6 -34.9°
